Погода в Партизанах

Россия / Республика Крым     45°08′43″N   35°09′10″E
темп.,
°C
ветер,
м/с
пор.,
м/с
влажн.,
%
обл.,
%
осадки,
мм/ч
давл.,
гПа
погр.,
м
20 апреля, вт
вт2000:00+11юв3590100 0.0 1011133
03:00+10в3597100 4.0 1008177
06:00+10в3598100 2.5 1006225
09:00+12ююв7108990 3.8 1005533
12:00+13юз57793 0.1 1004543
15:00+13з10137391 0.8 10051015
18:00+10з71285100 0.5 1009896
21:00+10з6118246 0.5 1011344
21 апреля, ср
ср2100:00+8юз358589 0.0 1014120
03:00+9зсз228192 0.0 101440
06:00+9зсз2482100 0.0 1015146
09:00+11юз2375100 0.1 1016243
12:00+14ююз236399 0.5 1017976
15:00+14ююз246120 2.4 1017739
18:00+14з356644 0.8 1018195
21:00+10з34824 0.9 101948
22 апреля, чт
чт2200:00+9ююз22865 0.0 102040
03:00+8вюв118819 0.0 102114
06:00+8ссз11872 0.0 102110
09:00+12сз12670 0.0 1022334
12:00+15св235632 0.0 10221157
15:00+15юв455993 0.0 1022577
18:00+15ююв345941 0.0 1022313
21:00+11зсз477610 0.0 1023109
23 апреля, пт
пт2300:00+9з33791 0.0 102336
03:00+9ююв11805 0.0 102310
06:00+8юв22815 0.0 102332
09:00+14юв34590 0.0 1023368
12:00+16ююв66490 0.0 1023832
15:00+16ююв774720 0.0 1021762
18:00+14ююв6961100 0.0 1021368
21:00+10ююв6117357 0.0 1020219
24 апреля, сб
сб2400:00+10ююв597499 0.0 1019190
03:00+10ююв467597 0.0 1018105
06:00+11ююв4770100 0.0 1017136
09:00+13ююв4669100 0.1 1018151
12:00+15ю346395 0.3 1018486
15:00+15ююв3462100 0.3 1017226
18:00+14ссв1268100 0.0 1017124
21:00+11ссз2484100 0.0 101879